| time (UTC) | temp F | wind direction | speed MPH | gust MPH | rain 1hr in | rain 24hr in | rain mn in | humidity % | barometer mb |
| 20260507014750 | 60 | 77 | 0.0 | 0.0 | 0.00 | 0.00 | 0.00 | 74 | 1015.3 |
| 20260507014247 | 60 | 6 | 0.0 | 1.0 | 0.00 | 0.00 | 0.00 | 73 | 1015.2 |
| 20260507013743 | 60 | 89 | 0.0 | 0.0 | 0.00 | 0.00 | 0.00 | 73 | 1015.0 |
| 20260507013241 | 60 | 75 | 0.0 | 0.0 | 0.00 | 0.00 | 0.00 | 73 | 1014.8 |
| 20260507012738 | 61 | 59 | 0.0 | 0.0 | 0.00 | 0.00 | 0.00 | 72 | 1014.9 |
| 20260507012233 | 61 | 64 | 0.0 | 0.0 | 0.00 | 0.00 | 0.00 | 71 | 1014.8 |
| 20260507011732 | 61 | 80 | 0.0 | 0.0 | 0.00 | 0.00 | 0.00 | 72 | 1014.7 |
| 20260507011228 | 62 | 98 | 0.0 | 0.0 | 0.00 | 0.00 | 0.00 | 71 | 1014.6 |
| 20260507010728 | 62 | 82 | 0.0 | 2.0 | 0.00 | 0.00 | 0.00 | 70 | 1014.6 |
| 20260507010224 | 62 | 22 | 1.0 | 2.0 | 0.00 | 0.00 | 0.00 | 69 | 1014.7 |
| 20260507005722 | 62 | 58 | 2.0 | 5.0 | 0.00 | 0.00 | 0.00 | 69 | 1014.5 |
| 20260507005218 | 62 | 69 | 0.0 | 0.0 | 0.00 | 0.00 | 0.00 | 69 | 1014.5 |
| 20260507004714 | 62 | 39 | 0.0 | 1.0 | 0.00 | 0.00 | 0.00 | 69 | 1014.4 |
| 20260507004213 | 63 | 49 | 1.0 | 2.0 | 0.00 | 0.00 | 0.00 | 68 | 1014.2 |
| 20260507003708 | 63 | 11 | 1.0 | 3.0 | 0.00 | 0.00 | 0.00 | 67 | 1014.2 |
| 20260507003204 | 64 | 46 | 1.0 | 6.0 | 0.00 | 0.00 | 0.00 | 67 | 1014.2 |
| 20260507002700 | 64 | 20 | 0.0 | 0.0 | 0.00 | 0.00 | 0.00 | 67 | 1014.0 |
| 20260507002156 | 63 | 52 | 0.0 | 0.0 | 0.00 | 0.00 | 0.00 | 68 | 1014.0 |
| 20260507001653 | 62 | 21 | 1.0 | 5.0 | 0.00 | 0.00 | 0.00 | 69 | 1014.1 |
| 20260507001150 | 63 | 57 | 0.0 | 1.0 | 0.00 | 0.00 | 0.00 | 69 | 1014.1 |
| 20260507000646 | 63 | 16 | 0.0 | 0.0 | 0.00 | 0.00 | 0.00 | 69 | 1014.0 |
| 20260507000142 | 63 | 47 | 0.0 | 0.0 | 0.00 | 0.00 | 0.00 | 68 | 1013.9 |
| 20260506235640 | 63 | 15 | 0.0 | 0.0 | 0.00 | 0.00 | 0.00 | 68 | 1014.0 |
| 20260506235140 | 63 | 27 | 0.0 | 1.0 | 0.00 | 0.00 | 0.00 | 68 | 1013.9 |
| 20260506234637 | 63 | 50 | 0.0 | 0.0 | 0.00 | 0.00 | 0.00 | 68 | 1013.6 |
| 20260506234134 | 64 | 78 | 0.0 | 0.0 | 0.00 | 0.00 | 0.00 | 68 | 1013.8 |
| 20260506233631 | 64 | 321 | 3.0 | 5.0 | 0.00 | 0.00 | 0.00 | 67 | 1013.6 |
| 20260506233128 | 64 | 21 | 0.0 | 1.0 | 0.00 | 0.00 | 0.00 | 67 | 1013.6 |
| 20260506232624 | 64 | 2 | 0.0 | 1.0 | 0.00 | 0.00 | 0.00 | 66 | 1013.5 |
| 20260506232120 | 65 | 39 | 4.0 | 7.0 | 0.00 | 0.00 | 0.00 | 66 | 1013.6 |
| 20260506231617 | 65 | 111 | 0.0 | 1.0 | 0.00 | 0.00 | 0.00 | 65 | 1013.4 |
| 20260506231116 | 65 | 71 | 0.0 | 0.0 | 0.00 | 0.00 | 0.00 | 65 | 1013.5 |
| 20260506230612 | 65 | 326 | 0.0 | 1.0 | 0.00 | 0.00 | 0.00 | 65 | 1013.3 |
| 20260506230109 | 65 | 10 | 0.0 | 1.0 | 0.00 | 0.00 | 0.00 | 64 | 1013.4 |
| 20260506225605 | 65 | 348 | 1.0 | 2.0 | 0.00 | 0.00 | 0.00 | 65 | 1013.0 |
| 20260506225102 | 66 | 4 | 0.0 | 0.0 | 0.00 | 0.00 | 0.00 | 65 | 1012.9 |
| 20260506224559 | 66 | 2 | 0.0 | 0.0 | 0.00 | 0.00 | 0.00 | 65 | 1012.8 |
| 20260506224055 | 66 | 341 | 1.0 | 3.0 | 0.00 | 0.00 | 0.00 | 65 | 1012.8 |
| 20260506223551 | 66 | 20 | 2.0 | 6.0 | 0.00 | 0.00 | 0.00 | 65 | 1012.9 |
| 20260506223048 | 66 | 17 | 5.0 | 8.0 | 0.00 | 0.00 | 0.00 | 65 | 1012.9 |
| 20260506222545 | 66 | 339 | 2.0 | 6.0 | 0.00 | 0.00 | 0.00 | 64 | 1012.9 |
| 20260506222041 | 66 | 355 | 0.0 | 0.0 | 0.00 | 0.00 | 0.00 | 64 | 1012.9 |
| 20260506221539 | 67 | 282 | 1.0 | 2.0 | 0.00 | 0.00 | 0.00 | 64 | 1012.8 |
| 20260506221037 | 68 | 335 | 0.0 | 2.0 | 0.00 | 0.00 | 0.00 | 63 | 1012.7 |
| 20260506220532 | 68 | 331 | 0.0 | 1.0 | 0.00 | 0.00 | 0.00 | 62 | 1012.8 |
| 20260506220028 | 68 | 8 | 1.0 | 3.0 | 0.00 | 0.00 | 0.00 | 62 | 1012.7 |
| 20260506215525 | 68 | 0 | 1.0 | 2.0 | 0.00 | 0.00 | 0.00 | 61 | 1012.7 |
| 20260506215021 | 68 | 333 | 0.0 | 1.0 | 0.00 | 0.00 | 0.00 | 61 | 1012.7 |
| 20260506214518 | 69 | 34 | 0.0 | 1.0 | 0.00 | 0.00 | 0.00 | 61 | 1012.7 |
| 20260506214015 | 69 | 7 | 1.0 | 3.0 | 0.00 | 0.00 | 0.00 | 59 | 1012.7 |
| 20260506213513 | 69 | 53 | 0.0 | 0.0 | 0.00 | 0.00 | 0.00 | 60 | 1012.6 |
| 20260506213009 | 70 | 354 | 0.0 | 2.0 | 0.00 | 0.00 | 0.00 | 59 | 1012.5 |
| 20260506212506 | 70 | 287 | 4.0 | 7.0 | 0.00 | 0.00 | 0.00 | 60 | 1012.6 |
| 20260506212001 | 69 | 7 | 0.0 | 0.0 | 0.00 | 0.00 | 0.00 | 61 | 1012.7 |
| 20260506211457 | 69 | 340 | 0.0 | 1.0 | 0.00 | 0.00 | 0.00 | 62 | 1012.7 |
| 20260506210949 | 69 | 274 | 4.0 | 7.0 | 0.00 | 0.00 | 0.00 | 60 | 1012.6 |
| 20260506210445 | 69 | 45 | 1.0 | 3.0 | 0.00 | 0.00 | 0.00 | 62 | 1012.7 |
| 20260506205942 | 69 | 336 | 0.0 | 0.0 | 0.00 | 0.00 | 0.00 | 60 | 1012.6 |
| 20260506205438 | 68 | 16 | 1.0 | 2.0 | 0.00 | 0.00 | 0.00 | 62 | 1012.9 |
| 20260506204934 | 68 | 100 | 0.0 | 0.0 | 0.00 | 0.00 | 0.00 | 59 | 1012.8 |
| 20260506204432 | 69 | 44 | 0.0 | 0.0 | 0.00 | 0.00 | 0.00 | 60 | 1012.9 |
| 20260506203929 | 69 | 58 | 0.0 | 0.0 | 0.00 | 0.00 | 0.00 | 59 | 1012.9 |
| 20260506203426 | 68 | 55 | 0.0 | 2.0 | 0.00 | 0.00 | 0.00 | 60 | 1013.0 |
| 20260506202923 | 68 | 60 | 0.0 | 0.0 | 0.00 | 0.00 | 0.00 | 60 | 1013.0 |
| 20260506202421 | 68 | 55 | 0.0 | 0.0 | 0.00 | 0.00 | 0.00 | 60 | 1013.3 |
| 20260506201917 | 68 | 24 | 0.0 | 0.0 | 0.00 | 0.00 | 0.00 | 60 | 1013.2 |
| 20260506201415 | 67 | 17 | 0.0 | 1.0 | 0.00 | 0.00 | 0.00 | 62 | 1013.4 |
| 20260506200911 | 68 | 349 | 0.0 | 0.0 | 0.00 | 0.00 | 0.00 | 61 | 1013.3 |
| 20260506200407 | 66 | 29 | 0.0 | 0.0 | 0.00 | 0.00 | 0.00 | 62 | 1013.4 |
| 20260506195904 | 66 | 344 | 2.0 | 3.0 | 0.00 | 0.00 | 0.00 | 61 | 1013.7 |
| 20260506195401 | 67 | 359 | 0.0 | 0.0 | 0.00 | 0.00 | 0.00 | 62 | 1013.4 |
| 20260506194858 | 67 | 17 | 0.0 | 0.0 | 0.00 | 0.00 | 0.00 | 62 | 1013.6 |
| 20260506194354 | 68 | 36 | 0.0 | 0.0 | 0.00 | 0.00 | 0.00 | 60 | 1013.6 |
| 20260506193852 | 67 | 10 | 0.0 | 1.0 | 0.00 | 0.00 | 0.00 | 61 | 1013.7 |
| 20260506193349 | 68 | 93 | 0.0 | 0.0 | 0.00 | 0.00 | 0.00 | 58 | 1013.6 |
| 20260506192845 | 68 | 21 | 0.0 | 1.0 | 0.00 | 0.00 | 0.00 | 60 | 1013.7 |
| 20260506192342 | 68 | 48 | 0.0 | 0.0 | 0.00 | 0.00 | 0.00 | 60 | 1013.3 |
| 20260506191839 | 65 | 30 | 0.0 | 0.0 | 0.00 | 0.00 | 0.00 | 64 | 1013.4 |
| 20260506191335 | 66 | 333 | 3.0 | 5.0 | 0.00 | 0.00 | 0.00 | 61 | 1013.6 |
| 20260506190833 | 65 | 336 | 2.0 | 5.0 | 0.00 | 0.00 | 0.00 | 63 | 1013.4 |
| 20260506190329 | 65 | 7 | 0.0 | 0.0 | 0.00 | 0.00 | 0.00 | 63 | 1013.8 |
| 20260506185826 | 64 | 65 | 2.0 | 5.0 | 0.00 | 0.00 | 0.00 | 63 | 1013.6 |
| 20260506185323 | 64 | 347 | 4.0 | 7.0 | 0.00 | 0.00 | 0.00 | 64 | 1013.9 |
| 20260506184819 | 64 | 14 | 0.0 | 0.0 | 0.00 | 0.00 | 0.00 | 63 | 1014.0 |
| 20260506184316 | 64 | 39 | 0.0 | 1.0 | 0.00 | 0.00 | 0.00 | 63 | 1014.0 |
| 20260506183813 | 65 | 80 | 0.0 | 2.0 | 0.00 | 0.00 | 0.00 | 61 | 1014.2 |
| 20260506183308 | 64 | 3 | 0.0 | 0.0 | 0.00 | 0.00 | 0.00 | 65 | 1013.9 |
| 20260506182806 | 64 | 28 | 2.0 | 5.0 | 0.00 | 0.00 | 0.00 | 63 | 1013.7 |
| 20260506182306 | 63 | 328 | 0.0 | 0.0 | 0.00 | 0.00 | 0.00 | 66 | 1013.9 |
| 20260506181801 | 62 | 29 | 0.0 | 1.0 | 0.00 | 0.00 | 0.00 | 65 | 1014.2 |
| 20260506181258 | 62 | 282 | 6.0 | 7.0 | 0.00 | 0.00 | 0.00 | 66 | 1014.2 |
| 20260506180755 | 63 | 356 | 5.0 | 6.0 | 0.00 | 0.00 | 0.00 | 65 | 1014.2 |
| 20260506180251 | 62 | 70 | 2.0 | 3.0 | 0.00 | 0.00 | 0.00 | 64 | 1014.3 |
| 20260506175747 | 62 | 35 | 2.0 | 3.0 | 0.00 | 0.00 | 0.00 | 68 | 1014.1 |
| 20260506175244 | 62 | 342 | 7.0 | 8.0 | 0.00 | 0.00 | 0.00 | 66 | 1013.9 |
| 20260506174742 | 62 | 309 | 5.0 | 6.0 | 0.00 | 0.00 | 0.00 | 65 | 1013.9 |
| 20260506174239 | 62 | 8 | 3.0 | 3.0 | 0.00 | 0.00 | 0.00 | 64 | 1014.4 |
| 20260506173737 | 61 | 324 | 2.0 | 5.0 | 0.00 | 0.00 | 0.00 | 67 | 1014.4 |
| 20260506173233 | 62 | 35 | 2.0 | 2.0 | 0.00 | 0.00 | 0.00 | 64 | 1014.5 |
| 20260506172730 | 62 | 7 | 5.0 | 7.0 | 0.00 | 0.00 | 0.00 | 65 | 1014.2 |
| 20260506172227 | 61 | 9 | 3.0 | 5.0 | 0.00 | 0.00 | 0.00 | 67 | 1014.2 |
| 20260506171724 | 60 | 310 | 6.0 | 9.0 | 0.00 | 0.00 | 0.00 | 67 | 1014.4 |
| 20260506171222 | 61 | 2 | 5.0 | 7.0 | 0.00 | 0.00 | 0.00 | 66 | 1014.4 |
| 20260506170719 | 60 | 32 | 7.0 | 8.0 | 0.00 | 0.00 | 0.00 | 66 | 1014.5 |
| 20260506170215 | 59 | 83 | 2.0 | 3.0 | 0.00 | 0.00 | 0.00 | 68 | 1014.4 |
| 20260506165714 | 59 | 63 | 3.0 | 5.0 | 0.00 | 0.00 | 0.00 | 70 | 1014.1 |
| 20260506165210 | 60 | 67 | 5.0 | 8.0 | 0.00 | 0.00 | 0.00 | 68 | 1014.0 |
| 20260506164708 | 60 | 350 | 4.0 | 6.0 | 0.00 | 0.00 | 0.00 | 68 | 1014.0 |
| 20260506164205 | 59 | 39 | 3.0 | 5.0 | 0.00 | 0.00 | 0.00 | 69 | 1013.9 |
| 20260506163701 | 61 | 54 | 2.0 | 3.0 | 0.00 | 0.00 | 0.00 | 66 | 1014.1 |
| 20260506163156 | 60 | 64 | 7.0 | 10.0 | 0.00 | 0.00 | 0.00 | 68 | 1014.4 |
| 20260506162652 | 58 | 40 | 5.0 | 8.0 | 0.00 | 0.00 | 0.00 | 70 | 1014.3 |
| 20260506162150 | 57 | 348 | 2.0 | 3.0 | 0.00 | 0.00 | 0.00 | 71 | 1014.8 |
| 20260506161647 | 57 | 69 | 5.0 | 6.0 | 0.00 | 0.00 | 0.00 | 71 | 1014.6 |
| 20260506161144 | 56 | 69 | 5.0 | 7.0 | 0.00 | 0.00 | 0.00 | 72 | 1014.6 |
| 20260506160642 | 56 | 78 | 6.0 | 8.0 | 0.00 | 0.00 | 0.00 | 73 | 1014.6 |
| 20260506160139 | 56 | 346 | 4.0 | 7.0 | 0.00 | 0.00 | 0.00 | 74 | 1014.1 |
| 20260506155638 | 55 | 14 | 3.0 | 5.0 | 0.00 | 0.00 | 0.00 | 74 | 1014.2 |
| 20260506155134 | 56 | 38 | 3.0 | 7.0 | 0.00 | 0.00 | 0.00 | 74 | 1013.9 |
| 20260506153236 | 55 | 67 | 0.0 | 1.0 | 0.00 | 0.00 | 0.00 | 75 | 1013.8 |
| 20260506152733 | 55 | 25 | 4.0 | 6.0 | 0.00 | 0.00 | 0.00 | 76 | 1013.5 |
| 20260506152230 | 55 | 61 | 7.0 | 8.0 | 0.00 | 0.00 | 0.00 | 76 | 1013.5 |
| 20260506151729 | 54 | 36 | 6.0 | 9.0 | 0.00 | 0.00 | 0.00 | 78 | 1013.5 |
| 20260506151225 | 53 | 45 | 4.0 | 7.0 | 0.00 | 0.00 | 0.00 | 79 | 1013.9 |
| 20260506150721 | 53 | 24 | 3.0 | 3.0 | 0.00 | 0.00 | 0.00 | 79 | 1014.0 |
| 20260506150219 | 53 | 295 | 4.0 | 6.0 | 0.00 | 0.00 | 0.00 | 79 | 1014.2 |
| 20260506145716 | 53 | 20 | 7.0 | 9.0 | 0.00 | 0.00 | 0.00 | 79 | 1014.8 |
| 20260506145212 | 53 | 327 | 3.0 | 5.0 | 0.00 | 0.00 | 0.00 | 80 | 1015.1 |
| 20260506144710 | 53 | 2 | 5.0 | 6.0 | 0.00 | 0.00 | 0.00 | 80 | 1015.4 |
| 20260506144206 | 52 | 13 | 3.0 | 3.0 | 0.00 | 0.00 | 0.00 | 81 | 1015.6 |
| 20260506143704 | 52 | 58 | 1.0 | 1.0 | 0.00 | 0.00 | 0.00 | 81 | 1015.9 |
| 20260506143202 | 52 | 59 | 1.0 | 1.0 | 0.00 | 0.00 | 0.00 | 82 | 1015.8 |
| 20260506142700 | 52 | 77 | 3.0 | 5.0 | 0.00 | 0.00 | 0.00 | 81 | 1016.1 |
| 20260506142158 | 52 | 30 | 0.0 | 0.0 | 0.00 | 0.00 | 0.00 | 83 | 1015.8 |
| 20260506141655 | 52 | 60 | 2.0 | 3.0 | 0.00 | 0.00 | 0.00 | 83 | 1015.1 |
| 20260506141153 | 52 | 82 | 3.0 | 5.0 | 0.00 | 0.00 | 0.00 | 84 | 1014.8 |
| 20260506140651 | 52 | 73 | 2.0 | 3.0 | 0.00 | 0.00 | 0.00 | 85 | 1014.6 |
| 20260506140148 | 52 | 61 | 1.0 | 2.0 | 0.00 | 0.00 | 0.00 | 86 | 1014.6 |
| 20260506135644 | 52 | 25 | 2.0 | 3.0 | 0.00 | 0.00 | 0.00 | 87 | 1014.3 |
| 20260506135141 | 52 | 10 | 4.0 | 6.0 | 0.00 | 0.00 | 0.00 | 87 | 1014.0 |
| 20260506134637 | 52 | 5 | 5.0 | 7.0 | 0.00 | 0.00 | 0.00 | 86 | 1013.8 |
| 20260506134133 | 51 | 17 | 3.0 | 5.0 | 0.00 | 0.00 | 0.00 | 86 | 1013.8 |
| 20260506133631 | 52 | 72 | 2.0 | 2.0 | 0.00 | 0.00 | 0.00 | 87 | 1014.0 |
| 20260506133128 | 51 | 48 | 5.0 | 8.0 | 0.00 | 0.00 | 0.00 | 86 | 1014.3 |
| 20260506132625 | 51 | 23 | 5.0 | 7.0 | 0.00 | 0.00 | 0.00 | 87 | 1014.3 |
| 20260506132122 | 51 | 348 | 0.0 | 1.0 | 0.00 | 0.00 | 0.00 | 87 | 1014.7 |
| 20260506131619 | 51 | 89 | 1.0 | 2.0 | 0.00 | 0.00 | 0.00 | 87 | 1014.8 |
| 20260506131115 | 51 | 333 | 3.0 | 5.0 | 0.00 | 0.00 | 0.00 | 87 | 1014.7 |
| 20260506130613 | 51 | 73 | 2.0 | 2.0 | 0.00 | 0.00 | 0.00 | 88 | 1014.1 |
| 20260506130110 | 51 | 61 | 6.0 | 9.0 | 0.00 | 0.00 | 0.00 | 87 | 1013.8 |
| 20260506125608 | 51 | 59 | 4.0 | 7.0 | 0.00 | 0.00 | 0.00 | 86 | 1013.4 |
| 20260506125106 | 51 | 16 | 6.0 | 8.0 | 0.00 | 0.00 | 0.00 | 86 | 1013.3 |
| 20260506124603 | 51 | 46 | 7.0 | 9.0 | 0.00 | 0.00 | 0.00 | 86 | 1013.3 |
| 20260506124101 | 52 | 97 | 3.0 | 5.0 | 0.00 | 0.00 | 0.00 | 86 | 1013.2 |
| 20260506123558 | 52 | 70 | 3.0 | 6.0 | 0.00 | 0.00 | 0.00 | 86 | 1013.0 |
| 20260506123057 | 52 | 36 | 7.0 | 9.0 | 0.00 | 0.00 | 0.00 | 86 | 1012.8 |
| 20260506122552 | 52 | 66 | 9.0 | 10.0 | 0.00 | 0.00 | 0.00 | 86 | 1012.7 |
| 20260506122051 | 52 | 331 | 6.0 | 9.0 | 0.00 | 0.00 | 0.00 | 86 | 1012.4 |
| 20260506121548 | 52 | 46 | 3.0 | 3.0 | 0.00 | 0.00 | 0.00 | 86 | 1012.6 |
| 20260506121044 | 52 | 47 | 3.0 | 6.0 | 0.00 | 0.00 | 0.00 | 86 | 1012.2 |
| 20260506120542 | 52 | 85 | 2.0 | 2.0 | 0.00 | 0.00 | 0.00 | 85 | 1012.5 |
| 20260506120039 | 52 | 59 | 7.0 | 9.0 | 0.00 | 0.00 | 0.00 | 85 | 1012.3 |
| 20260506115537 | 52 | 65 | 3.0 | 8.0 | 0.00 | 0.00 | 0.00 | 84 | 1012.4 |
| 20260506115036 | 53 | 42 | 6.0 | 9.0 | 0.00 | 0.00 | 0.00 | 84 | 1012.3 |
| 20260506114532 | 52 | 351 | 3.0 | 5.0 | 0.00 | 0.00 | 0.00 | 84 | 1012.5 |
| 20260506114031 | 53 | 24 | 7.0 | 11.0 | 0.00 | 0.00 | 0.00 | 85 | 1012.5 |
| 20260506113528 | 53 | 24 | 5.0 | 7.0 | 0.00 | 0.00 | 0.00 | 84 | 1012.4 |
| 20260506113026 | 53 | 21 | 5.0 | 8.0 | 0.00 | 0.00 | 0.00 | 84 | 1012.3 |
| 20260506112522 | 53 | 5 | 5.0 | 7.0 | 0.00 | 0.00 | 0.00 | 83 | 1012.5 |
| 20260506112019 | 53 | 321 | 4.0 | 6.0 | 0.00 | 0.00 | 0.00 | 83 | 1012.5 |
| 20260506111518 | 53 | 315 | 6.0 | 7.0 | 0.00 | 0.00 | 0.00 | 83 | 1012.5 |
| 20260506111014 | 53 | 332 | 5.0 | 6.0 | 0.00 | 0.00 | 0.00 | 82 | 1012.4 |
| 20260506110512 | 53 | 88 | 2.0 | 3.0 | 0.00 | 0.00 | 0.00 | 82 | 1012.6 |
| 20260506110009 | 53 | 20 | 4.0 | 6.0 | 0.00 | 0.00 | 0.00 | 82 | 1012.5 |
| 20260506105505 | 53 | 35 | 3.0 | 7.0 | 0.00 | 0.00 | 0.00 | 82 | 1012.2 |
| 20260506105002 | 52 | 344 | 5.0 | 9.0 | 0.00 | 0.00 | 0.00 | 82 | 1012.0 |
| 20260506104500 | 53 | 335 | 4.0 | 6.0 | 0.00 | 0.00 | 0.00 | 83 | 1012.1 |
| 20260506103958 | 53 | 348 | 4.0 | 6.0 | 0.00 | 0.00 | 0.00 | 82 | 1011.7 |
| 20260506103455 | 53 | 31 | 1.0 | 5.0 | 0.00 | 0.00 | 0.00 | 82 | 1011.9 |
| 20260506102952 | 53 | 350 | 10.0 | 16.0 | 0.00 | 0.00 | 0.00 | 82 | 1011.9 |
| 20260506102450 | 53 | 40 | 6.0 | 9.0 | 0.00 | 0.00 | 0.00 | 82 | 1011.7 |
| 20260506101947 | 53 | 328 | 4.0 | 5.0 | 0.00 | 0.00 | 0.00 | 82 | 1011.6 |
| 20260506101443 | 53 | 11 | 8.0 | 10.0 | 0.00 | 0.00 | 0.00 | 82 | 1011.5 |
| 20260506100941 | 53 | 40 | 6.0 | 7.0 | 0.00 | 0.00 | 0.00 | 83 | 1011.5 |
| 20260506100439 | 53 | 356 | 3.0 | 8.0 | 0.00 | 0.00 | 0.00 | 83 | 1011.5 |
| 20260506095937 | 53 | 16 | 5.0 | 7.0 | 0.00 | 0.00 | 0.00 | 82 | 1011.5 |
| 20260506095435 | 53 | 356 | 7.0 | 8.0 | 0.00 | 0.00 | 0.00 | 83 | 1011.6 |
| 20260506094931 | 53 | 352 | 5.0 | 9.0 | 0.00 | 0.00 | 0.00 | 83 | 1011.3 |
| 20260506094430 | 53 | 4 | 5.0 | 9.0 | 0.00 | 0.00 | 0.00 | 84 | 1011.4 |
| 20260506093927 | 53 | 39 | 6.0 | 7.0 | 0.00 | 0.00 | 0.00 | 84 | 1011.1 |
| 20260506093425 | 53 | 23 | 3.0 | 3.0 | 0.00 | 0.00 | 0.00 | 84 | 1011.1 |
| 20260506092922 | 53 | 39 | 2.0 | 2.0 | 0.00 | 0.00 | 0.00 | 84 | 1011.0 |
| 20260506092420 | 53 | 77 | 5.0 | 8.0 | 0.00 | 0.00 | 0.00 | 83 | 1011.1 |
| 20260506091916 | 53 | 38 | 4.0 | 6.0 | 0.00 | 0.00 | 0.00 | 83 | 1010.8 |
| 20260506091414 | 53 | 18 | 3.0 | 3.0 | 0.00 | 0.00 | 0.00 | 84 | 1010.4 |
| 20260506090911 | 53 | 21 | 6.0 | 8.0 | 0.00 | 0.00 | 0.00 | 83 | 1010.7 |
| 20260506090409 | 53 | 348 | 4.0 | 6.0 | 0.00 | 0.00 | 0.00 | 83 | 1010.8 |
| 20260506085905 | 53 | 27 | 5.0 | 7.0 | 0.00 | 0.00 | 0.00 | 83 | 1010.7 |
| 20260506085402 | 53 | 58 | 4.0 | 6.0 | 0.00 | 0.00 | 0.00 | 83 | 1010.6 |
| 20260506084858 | 53 | 20 | 2.0 | 3.0 | 0.00 | 0.00 | 0.00 | 83 | 1010.6 |
| 20260506084355 | 54 | 89 | 0.0 | 1.0 | 0.00 | 0.00 | 0.00 | 84 | 1010.7 |
| 20260506083852 | 54 | 48 | 3.0 | 5.0 | 0.00 | 0.00 | 0.00 | 83 | 1010.6 |
| 20260506083349 | 54 | 0 | 4.0 | 6.0 | 0.00 | 0.00 | 0.00 | 83 | 1010.8 |
| 20260506082846 | 54 | 11 | 3.0 | 5.0 | 0.00 | 0.00 | 0.00 | 83 | 1010.4 |
| 20260506082343 | 54 | 333 | 6.0 | 8.0 | 0.00 | 0.00 | 0.00 | 83 | 1010.7 |
| 20260506081839 | 54 | 1 | 5.0 | 7.0 | 0.00 | 0.00 | 0.00 | 84 | 1010.5 |
| 20260506081338 | 54 | 358 | 6.0 | 7.0 | 0.00 | 0.00 | 0.00 | 84 | 1010.5 |
| 20260506080835 | 54 | 29 | 3.0 | 3.0 | 0.00 | 0.00 | 0.00 | 85 | 1010.3 |
| 20260506080331 | 54 | 23 | 1.0 | 2.0 | 0.00 | 0.00 | 0.00 | 85 | 1010.3 |
| 20260506073315 | 55 | 339 | 4.0 | 7.0 | 0.00 | 0.00 | 0.00 | 84 | 1010.5 |
| 20260506072812 | 55 | 324 | 3.0 | 5.0 | 0.00 | 0.00 | 0.00 | 85 | 1010.4 |
| 20260506072310 | 55 | 330 | 6.0 | 9.0 | 0.00 | 0.00 | 0.00 | 84 | 1010.3 |
| 20260506071807 | 55 | 356 | 3.0 | 3.0 | 0.00 | 0.00 | 0.00 | 85 | 1010.6 |
| 20260506071305 | 55 | 341 | 5.0 | 6.0 | 0.00 | 0.00 | 0.00 | 84 | 1010.3 |
| 20260506070802 | 55 | 332 | 3.0 | 3.0 | 0.00 | 0.00 | 0.00 | 84 | 1010.7 |
| 20260506070259 | 55 | 336 | 1.0 | 2.0 | 0.00 | 0.00 | 0.00 | 84 | 1010.6 |
| 20260506062236 | 56 | 0 | 3.0 | 8.0 | 0.00 | 0.00 | 0.00 | 85 | 1010.5 |
| 20260506061732 | 55 | 44 | 2.0 | 3.0 | 0.00 | 0.00 | 0.00 | 85 | 1010.3 |
| 20260506061230 | 55 | 12 | 6.0 | 7.0 | 0.00 | 0.00 | 0.00 | 86 | 1010.1 |
| 20260506060728 | 55 | 8 | 1.0 | 2.0 | 0.00 | 0.00 | 0.00 | 85 | 1009.8 |
| 20260506060224 | 55 | 75 | 0.0 | 0.0 | 0.00 | 0.00 | 0.00 | 85 | 1009.3 |
| 20260506051156 | 56 | 75 | 0.0 | 1.0 | 0.00 | 0.00 | 0.00 | 82 | 1009.6 |
| 20260506050655 | 56 | 49 | 4.0 | 8.0 | 0.00 | 0.00 | 0.00 | 81 | 1009.5 |
| 20260506050151 | 57 | 69 | 3.0 | 3.0 | 0.00 | 0.00 | 0.00 | 81 | 1009.9 |
| 20260506044643 | 57 | 32 | 3.0 | 3.0 | 0.00 | 0.00 | 0.00 | 82 | 1010.3 |
| 20260506044139 | 57 | 80 | 1.0 | 2.0 | 0.00 | 0.00 | 0.00 | 82 | 1010.1 |
| 20260506043636 | 57 | 87 | 1.0 | 1.0 | 0.00 | 0.00 | 0.00 | 82 | 1010.2 |
| 20260506043134 | 57 | 57 | 2.0 | 2.0 | 0.00 | 0.00 | 0.00 | 82 | 1010.1 |
| 20260506042633 | 57 | 25 | 1.0 | 2.0 | 0.00 | 0.00 | 0.00 | 82 | 1010.1 |
| 20260506042131 | 57 | 20 | 3.0 | 3.0 | 0.00 | 0.00 | 0.00 | 81 | 1010.1 |
| 20260506041629 | 57 | 75 | 3.0 | 5.0 | 0.00 | 0.00 | 0.00 | 81 | 1010.1 |
| 20260506041125 | 58 | 89 | 3.0 | 6.0 | 0.00 | 0.00 | 0.00 | 80 | 1010.0 |
| 20260506040623 | 58 | 51 | 3.0 | 6.0 | 0.00 | 0.00 | 0.00 | 80 | 1010.0 |
| 20260506040120 | 58 | 91 | 6.0 | 8.0 | 0.00 | 0.00 | 0.00 | 81 | 1010.3 |
| 20260506035617 | 58 | 69 | 0.0 | 1.0 | 0.00 | 0.00 | 0.00 | 81 | 1010.1 |
| 20260506035113 | 58 | 67 | 4.0 | 5.0 | 0.00 | 0.00 | 0.00 | 81 | 1010.0 |
| 20260506034611 | 58 | 54 | 3.0 | 5.0 | 0.00 | 0.00 | 0.00 | 81 | 1009.9 |
| 20260506034108 | 58 | 70 | 0.0 | 1.0 | 0.00 | 0.00 | 0.00 | 81 | 1009.6 |
| 20260506033605 | 58 | 42 | 5.0 | 7.0 | 0.00 | 0.00 | 0.00 | 80 | 1009.8 |
| 20260506033101 | 59 | 5 | 7.0 | 9.0 | 0.00 | 0.00 | 0.00 | 80 | 1009.8 |
| 20260506032559 | 59 | 5 | 2.0 | 6.0 | 0.00 | 0.00 | 0.00 | 80 | 1009.9 |
| 20260506032056 | 59 | 14 | 3.0 | 3.0 | 0.00 | 0.00 | 0.00 | 80 | 1009.9 |
| 20260506031553 | 59 | 31 | 5.0 | 8.0 | 0.00 | 0.00 | 0.00 | 80 | 1009.6 |
| 20260506031050 | 60 | 5 | 2.0 | 5.0 | 0.00 | 0.00 | 0.00 | 79 | 1009.4 |
| 20260506030548 | 60 | 1 | 3.0 | 3.0 | 0.00 | 0.00 | 0.00 | 79 | 1009.4 |
| 20260506030045 | 60 | 65 | 0.0 | 0.0 | 0.00 | 0.00 | 0.00 | 79 | 1009.6 |
| 20260506025542 | 60 | 99 | 1.0 | 2.0 | 0.00 | 0.00 | 0.00 | 78 | 1009.3 |
| 20260506025038 | 61 | 74 | 2.0 | 3.0 | 0.00 | 0.00 | 0.00 | 77 | 1009.3 |
| 20260506024535 | 61 | 15 | 0.0 | 0.0 | 0.00 | 0.00 | 0.00 | 78 | 1009.0 |
| 20260506024031 | 61 | 329 | 5.0 | 8.0 | 0.00 | 0.00 | 0.00 | 78 | 1008.4 |
| 20260506023528 | 62 | 6 | 1.0 | 1.0 | 0.00 | 0.00 | 0.00 | 77 | 1008.7 |
| 20260506023026 | 62 | 327 | 0.0 | 1.0 | 0.00 | 0.00 | 0.00 | 76 | 1008.4 |
| 20260506022523 | 62 | 25 | 3.0 | 8.0 | 0.00 | 0.00 | 0.00 | 76 | 1008.4 |
| 20260506022020 | 63 | 51 | 2.0 | 6.0 | 0.00 | 0.00 | 0.00 | 76 | 1008.3 |
| 20260506021518 | 63 | 73 | 3.0 | 7.0 | 0.00 | 0.00 | 0.00 | 76 | 1008.2 |
| 20260506021015 | 64 | 322 | 7.0 | 13.0 | 0.00 | 0.00 | 0.00 | 75 | 1008.4 |
| 20260506020512 | 65 | 68 | 0.0 | 1.0 | 0.00 | 0.00 | 0.00 | 74 | 1007.8 |
| 20260506020010 | 66 | 34 | 6.0 | 8.0 | 0.00 | 0.00 | 0.00 | 74 | 1007.7 |
| 20260506015507 | 66 | 70 | 6.0 | 9.0 | 0.00 | 0.00 | 0.00 | 73 | 1007.4 |